Location: Koslow
(50.3020°N, 18.5663°E)
Time: 04:09:07
(UTC+00:00)

STARLINK-1357 - Pass Details

Date: 21 June 2021
Orbit: 546 x 548 km, 53.1° (Epoch: 03 August)

Event Time Altitude Azimuth Distance (km) Brightness Sun altitude
Rises 07:45:40 0° 288° (WNW) 2,715 6.7 45.8°
Reaches altitude 10° 07:48:25 10° 270° (W) 1,818 6.0 46.2°
Maximum altitude 07:51:18 19° 225° (SW) 1,355 5.6 46.6°
Drops below altitude 10° 07:54:10 10° 181° (S) 1,810 6.6 47.1°
Enters shadow 08:33:40 -75° 110° (ESE) 12,849 10.2 52.6°
Exits shadow 09:08:08 -37° 322° (NW) 8,543 9.0 56.9°
